Weather History for Huntsville Madison, AL

Change the Weather History Date:

Friday, March 8, 2013

  Actual Average (KHSV) Record (KHSV)
Temperature  
Mean Temperature 44 °F 51 °F  
Max Temperature 60 °F 62 °F 82 °F (1925)
Min Temperature 28 °F 41 °F 12 °F (1943)
Degree Days  
Heating Degree Days 21 14  
Month to date heating degree days 118  
Since 1 July heating degree days 2570  
Cooling Degree Days 0 0  
Month to date cooling degree days 0  
Year to date cooling degree days 1  
Moisture  
Dew Point 22 °F    
Average Humidity 56    
Maximum Humidity 87    
Minimum Humidity 10    
Precipitation  
Precipitation 0.00 in 0.16 in 1.60 in (1919)
Month to date precipitation 1.33  
Year to date precipitation 11.06  
Snow  
Snow 0.00 in - - ()
Month to date snowfall  
Since 1 July snowfall  
Snow Depth -    
Sea Level Pressure  
Sea Level Pressure 30.30 in    
Wind  
Wind Speed 3 mph (North)    
Max Wind Speed 10 mph    
Max Gust Speed -    
Visibility 9 miles    
Events      
T = Trace of Precipitation, MM = Missing Value Source: NWS Daily Summary

Daily Weather History Graph

Daily Weather History Graph

Search for Another Location

Airport:

Trip Planner

Search our weather history database for the weather conditions in past years. The results will help you decide how hot, cold, wet, or windy it might be!

Date:

Astronomy

Mar. 08, 2013 Rise Set
Actual Time 6:06 AM CST 5:48 PM CST
Civil Twilight 5:40 AM CST 6:13 PM CST
Nautical Twilight 5:11 AM CST 6:42 PM CST
Astronomical Twilight 4:42 AM CST 7:12 PM CST
Moon 3:43 AM CST (3/8) 2:48 PM CST (3/8)
Length of Visible Light 12h 32m
Length of Day
11h 42m
Waning Crescent, 11% of the Moon is Illuminated
Mar 8
Waning Crescent
Mar 11
New
Mar 19
First Quarter
Mar 27
Full
Apr 2
Last Quarter

Hourly Weather History & Observations

Time (CST) Temp. Windchill Dew Point Humidity Pressure Visibility Wind Dir Wind Speed Gust Speed Precip Events Conditions
12:15 AM 30.2 °F 26.7 °F 26.6 °F 86% 30.30 in 7.0 mi NNW 3.5 mph - N/A   Clear
12:35 AM 30.2 °F 25.4 °F 26.6 °F 86% 30.30 in 7.0 mi North 4.6 mph - N/A   Clear
12:55 AM 30.2 °F 26.7 °F 26.6 °F 86% 30.31 in 7.0 mi North 3.5 mph - N/A   Clear
1:15 AM 30.2 °F 26.7 °F 26.6 °F 86% 30.31 in 7.0 mi North 3.5 mph - N/A   Clear
1:35 AM 30.2 °F 26.7 °F 26.6 °F 86% 30.31 in 7.0 mi North 3.5 mph - N/A   Clear
1:55 AM 30.2 °F - 24.8 °F 80% 30.30 in 7.0 mi Calm Calm - N/A   Clear
2:15 AM 30.2 °F 26.7 °F 26.6 °F 86% 30.30 in 7.0 mi NNE 3.5 mph - N/A   Clear
2:35 AM 30.2 °F - 24.8 °F 80% 30.30 in 7.0 mi Calm Calm - N/A   Clear
2:55 AM 30.2 °F - 24.8 °F 80% 30.30 in 7.0 mi Calm Calm - N/A   Clear
3:15 AM 30.2 °F 26.7 °F 26.6 °F 86% 30.30 in 7.0 mi North 3.5 mph - N/A   Clear
3:35 AM 30.2 °F - 24.8 °F 80% 30.30 in 7.0 mi Calm Calm - N/A   Clear
3:55 AM 30.2 °F - 24.8 °F 80% 30.31 in 7.0 mi Calm Calm - N/A   Clear
4:15 AM 30.2 °F 26.7 °F 24.8 °F 80% 30.32 in 7.0 mi North 3.5 mph - N/A   Clear
4:35 AM 28.4 °F 23.3 °F 24.8 °F 86% 30.33 in 7.0 mi North 4.6 mph - N/A   Clear
5:15 AM 30.2 °F 26.7 °F 24.8 °F 80% 30.33 in 7.0 mi NNE 3.5 mph - N/A   Clear
5:35 AM 28.4 °F 24.6 °F 23.0 °F 80% 30.33 in 7.0 mi North 3.5 mph - N/A   Clear
5:55 AM 28.4 °F - 23.0 °F 80% 30.33 in 7.0 mi Calm Calm - N/A   Clear
6:15 AM 28.4 °F - 24.8 °F 86% 30.33 in 5.0 mi Calm Calm - N/A   Clear
6:35 AM 28.4 °F - 24.8 °F 86% 30.33 in 5.0 mi Calm Calm - N/A   Clear
6:55 AM 30.2 °F - 26.6 °F 86% 30.33 in 5.0 mi Calm Calm - N/A   Clear
7:15 AM 30.2 °F 26.7 °F 26.6 °F 86% 30.34 in 5.0 mi North 3.5 mph - N/A   Haze
7:35 AM 32.0 °F - 26.6 °F 80% 30.35 in 7.0 mi Calm Calm - N/A   Clear
7:55 AM 32.0 °F - 26.6 °F 80% 30.35 in 7.0 mi Calm Calm - N/A   Clear
8:15 AM 33.8 °F - 26.6 °F 75% 30.37 in 7.0 mi Calm Calm - N/A   Clear
8:35 AM 33.8 °F - 26.6 °F 75% 30.37 in 10.0 mi Calm Calm - N/A   Clear
8:55 AM 35.6 °F - 26.6 °F 70% 30.37 in 10.0 mi Calm Calm - N/A   Clear
9:15 AM 35.6 °F - 26.6 °F 70% 30.37 in 10.0 mi Calm Calm - N/A   Clear
9:35 AM 39.2 °F - 28.4 °F 65% 30.37 in 10.0 mi Calm Calm - N/A   Clear
9:55 AM 41.0 °F - 26.6 °F 57% 30.38 in 10.0 mi Calm Calm - N/A   Clear
10:15 AM 42.8 °F - 26.6 °F 53% 30.37 in 10.0 mi Calm Calm - N/A   Clear
10:35 AM 44.6 °F 43.1 °F 26.6 °F 49% 30.37 in 10.0 mi NNW 3.5 mph - N/A   Clear
10:55 AM 44.6 °F - 26.6 °F 49% 30.37 in 10.0 mi Calm Calm - N/A   Clear
11:15 AM 46.4 °F - 26.6 °F 46% 30.36 in 10.0 mi Calm Calm - N/A   Clear
11:35 AM 50.0 °F - 21.2 °F 32% 30.35 in 10.0 mi North 8.1 mph - N/A   Clear
11:55 AM 51.8 °F - 21.2 °F 30% 30.33 in 10.0 mi NNE 5.8 mph - N/A   Clear
12:15 PM 53.6 °F - 15.8 °F 22% 30.31 in 10.0 mi NE 4.6 mph - N/A   Clear
12:35 PM 55.4 °F - 8.6 °F 15% 30.30 in 10.0 mi NNE 5.8 mph - N/A   Clear
12:55 PM 55.4 °F - 5.0 °F 13% 30.30 in 10.0 mi NNE 8.1 mph - N/A   Clear
1:15 PM 55.4 °F - 8.6 °F 15% 30.29 in 10.0 mi NNE 5.8 mph - N/A   Clear
1:35 PM 57.2 °F - 5.0 °F 12% 30.28 in 10.0 mi North 10.4 mph - N/A   Clear
1:55 PM 59.0 °F - 3.2 °F 11% 30.28 in 10.0 mi North 6.9 mph - N/A   Clear
2:15 PM 59.0 °F - 3.2 °F 11% 30.28 in 10.0 mi North 6.9 mph - N/A   Clear
2:35 PM 59.0 °F - 5.0 °F 12% 30.27 in 10.0 mi North 9.2 mph - N/A   Clear
2:55 PM 60.8 °F - 5.0 °F 11% 30.27 in 10.0 mi North 8.1 mph - N/A   Clear
3:15 PM 60.8 °F - 10.4 °F 14% 30.27 in 10.0 mi North 5.8 mph - N/A   Clear
3:35 PM 60.8 °F - 12.2 °F 15% 30.26 in 10.0 mi North 6.9 mph - N/A   Clear
3:55 PM 60.8 °F - 12.2 °F 15% 30.25 in 10.0 mi NNE 4.6 mph - N/A   Clear
4:15 PM 60.8 °F - 3.2 °F 10% 30.25 in 10.0 mi North 3.5 mph - N/A   Clear
4:35 PM 59.0 °F - 5.0 °F 12% 30.26 in 10.0 mi North 5.8 mph - N/A   Clear
4:55 PM 59.0 °F - 5.0 °F 12% 30.26 in 10.0 mi North 3.5 mph - N/A   Clear
5:15 PM 59.0 °F - 8.6 °F 14% 30.26 in 10.0 mi Calm Calm - N/A   Clear
5:35 PM 55.4 °F - 15.8 °F 21% 30.26 in 10.0 mi Calm Calm - N/A   Clear
5:55 PM 53.6 °F - 21.2 °F 28% 30.26 in 10.0 mi Calm Calm - N/A   Clear
6:15 PM 50.0 °F - 24.8 °F 37% 30.27 in 10.0 mi Calm Calm - N/A   Clear
6:35 PM 44.6 °F 43.1 °F 28.4 °F 53% 30.26 in 10.0 mi North 3.5 mph - N/A   Clear
6:55 PM 44.6 °F - 28.4 °F 53% 30.26 in 10.0 mi Calm Calm - N/A   Clear
7:15 PM 44.6 °F - 26.6 °F 49% 30.27 in 10.0 mi Calm Calm - N/A   Clear
7:35 PM 44.6 °F - 24.8 °F 46% 30.27 in 10.0 mi Calm Calm - N/A   Clear
7:55 PM 42.8 °F - 26.6 °F 53% 30.27 in 10.0 mi Calm Calm - N/A   Clear
8:15 PM 41.0 °F - 24.8 °F 53% 30.28 in 10.0 mi Calm Calm - N/A   Clear
8:35 PM 39.2 °F - 28.4 °F 65% 30.26 in 10.0 mi Calm Calm - N/A   Clear
9:15 PM 41.0 °F - 28.4 °F 61% 30.25 in 10.0 mi Calm Calm - N/A   Clear
9:35 PM 39.2 °F - 23.0 °F 52% 30.25 in 10.0 mi Calm Calm - N/A   Clear
9:55 PM 37.4 °F - 30.2 °F 75% 30.25 in 10.0 mi Calm Calm - N/A   Clear
10:15 PM 37.4 °F - 28.4 °F 70% 30.26 in 10.0 mi Calm Calm - N/A   Clear
10:35 PM 35.6 °F - 32.0 °F 87% 30.26 in 10.0 mi Calm Calm - N/A   Clear
10:55 PM 35.6 °F - 30.2 °F 81% 30.25 in 10.0 mi Calm Calm - N/A   Clear
11:15 PM 37.4 °F - 30.2 °F 75% 30.24 in 10.0 mi Calm Calm - N/A   Clear
11:35 PM 35.6 °F - 28.4 °F 75% 30.24 in 10.0 mi Calm Calm - N/A   Clear
11:55 PM 35.6 °F - 32.0 °F 87% 30.23 in 10.0 mi Calm Calm - N/A   Clear